Regional Weather Roundup
Issued by NWS Upton, NY

Current Version | Previous Version | Graphics & Text | Print | Product List | Glossary Off
Versions: 1 2 3 4 5 6 7 8 9 10 11 12 13 14 15 16 17 18 19 20 21 22 23 24 25 26 27 28 29 30 31 32 33 34 35 36 37 38 39 40 41 42 43 44 45 46 47 48 49

000
ASUS41 KOKX 270105
RWROKX

REGIONAL WEATHER ROUNDUP
NATIONAL WEATHER SERVICE NEW YORK NY
800 PM EST THU FEB 26 2015

NOTE: "FAIR" INDICATES FEW OR NO CLOUDS BELOW 12,000 FEET WITH NO
SIGNIFICANT WEATHER AND/OR OBSTRUCTIONS TO VISIBILITY.

NYZ071-072-176-178-NJZ106-104-270200-
NEW YORK CITY METRO AREA


CITY           SKY/WX    TMP DP  RH WIND       PRES   REMARKS
CENTRAL PARK   CLOUDY    25  11  55 NW6       30.08R WCI  18
LAGUARDIA APRT CLOUDY    25  13  60 N6        30.07R WCI  18
KENNEDY INTL   MOCLDY    26  14  60 N7        30.08R WCI  18
NEWARK/LIBERTY CLOUDY    25  14  63 N5        30.08R WCI  19
BRNX BOT. GARD   N/A    N/A N/A N/A NW8       30.09R
TETERBORO      CLOUDY    24  11  57 NE6       30.06R WCI  17
$$

NYZ177-179-078>081-270200-
LONG ISLAND NEW YORK

CITY           SKY/WX    TMP DP  RH WIND       PRES   REMARKS
FARMINGDALE    CLOUDY    26  14  60 N8        30.06R WCI  18
ISLIP          CLOUDY    26  14  60 N7        30.05R WCI  18
SHIRLEY        CLOUDY    25  15  66 N8        30.07R WCI  16
WESTHAMPTON    CLOUDY    24  14  65 N8        30.06R WCI  15
MONTAUK POINT    N/A     26  16  65 N7        30.05R WCI  18
$$

NYZ052-065-067-270200-
HUDSON VALLEY

CITY           SKY/WX    TMP DP  RH WIND       PRES   REMARKS
WHITE PLAINS   MOCLDY    21  10  62 N9        30.03R WCI  11
NEWBURGH       CLOUDY    18  10  73 N7        30.07R WCI   8
MONTGOMERY     CLOUDY    18   8  65 NE5       30.06R WCI  11
POUGHKEEPSIE   CLOUDY    20   6  55 CALM      30.08R
ALBANY         CLOUDY    16  -4  41 N7        30.11R WCI   6
$$

NJZ001-105-106-008-010-013-015-019>022-104-270200-
NEW JERSEY

CITY           SKY/WX    TMP DP  RH WIND       PRES   REMARKS
NEWARK/LIBERTY CLOUDY    25  14  63 N5        30.08R WCI  19
TETERBORO      CLOUDY    24  11  57 NE6       30.06R WCI  17
CALDWELL       MOCLDY    23  11  60 N3        30.08R
MORRISTOWN     CLOUDY    21  12  68 CALM      30.09R
SOMERVILLE     PTCLDY    23  14  68 CALM      30.07R
SUSSEX         MOCLDY    20  10  65 N6        30.06R WCI  12
ANDOVER          N/A     19  11  70 CALM      30.05R
TRENTON        PTCLDY    26  13  57 MISG      30.08R
MILLVILLE      PTCLDY    22  16  78 CALM      30.08R
ATLANTIC CITY  PTCLDY    25  16  68 CALM      30.08R
WRIGHTSTOWN    PTCLDY    23  17  75 CALM      30.06R
TOMS RIVER     PTCLDY    25  18  74 CALM      30.09R
BELMAR         MOCLDY    25  12  58 CALM      30.06R
$$

PAZ047>061-062-071-270200-
EASTERN PENNSYLVANIA

CITY           SKY/WX    TMP DP  RH WIND       PRES   REMARKS
PHILADELPHIA   MOCLDY    29  16  58 NW8       30.10R WCI  21
ALLENTOWN      PTCLDY    23  14  68 CALM      30.07R
SCRANTON       PTCLDY    19   9  65 NW7       30.05R WCI  10
$$

CTZ002-004>006-009-010-012-RIZ004-006-007-MAZ004-011-015-270200-
SOUTHERN NEW ENGLAND
 IN CT

CITY           SKY/WX    TMP DP  RH WIND       PRES   REMARKS
BRADLEY INTL   MOCLDY    22   7  52 NW3       30.04R
HARTFORD       CLOUDY    22   8  55 NW3       30.06R
DANBURY        CLOUDY    19   8  62 W6        30.06R WCI  11
WTRBRY/OXFORD  CLOUDY    21   7  53 NW5       30.02R WCI  15
BRIDGEPORT     CLOUDY    25  14  63 N5        30.06R WCI  19
MERIDEN        CLOUDY    23  11  60 CALM      30.06R
NEW HAVEN      CLOUDY    24  12  60 N9        30.05R WCI  14
CHESTER        CLOUDY    23  14  68 N9        30.02R WCI  13
GROTON         MOCLDY    21  13  71 N3        30.05R
WILLIMANTIC    CLOUDY    22  13  68 CALM      30.04R

 IN RI

CITY           SKY/WX    TMP DP  RH WIND       PRES   REMARKS
PROVIDENCE     MOCLDY    20  11  68 N6        30.04R WCI  12
BLOCK ISLAND   MOCLDY    23  12  63 N8        30.01R WCI  14
WESTERLY       PTCLDY    22  13  68 N3        30.05R

 IN MA

CITY           SKY/WX    TMP DP  RH WIND       PRES   REMARKS
BOSTON         CLOUDY    20   8  60 N6        30.05R WCI  12
WORCESTER      CLOUDY    20   8  60 CALM      29.97R
WESTFIELD      CLOUDY    21   3  45 CALM      30.04R
PROVINCETOWN   PTCLDY    25  12  58 N14G22    30.01S WCI  13
NANTUCKET      CLOUDY    27  21  78 N18       29.98R WCI  14
$$

ANZ330-335-338-340-345-350-353-355-270200-
COASTAL MARINE OBSERVATIONS


STATION/POSITION TIME  SKY/WX   TEMP    WIND        PRES    VSBY  WAVE
                                AIR SEA DIR/SP/G                  HT/PER
                 (UTC)          (F)     (DEG/KT/KT) (MB)    (MI)  (FT/S)
NY HARB ENTRANCE 0100            28 38  340/ 10/ 16 1018.0          3/10
4S FIRE IS       NOT AVBL
20S FIRE ISLAND  0000               36              1017.1          5/ 6
23SW MTP         0100                                 N/A           4/ 6
HUDSON CANYON    NOT AVBL
EXECUTION ROCKS  NOT AVBL
WESTERN LI SOUND NOT AVBL
CENTRAL LI SOUND NOT AVBL
EASTERN LI SOUND NOT AVBL
ROBBINS REEF     0100            25      10/  7/  8 1016.9
$$


>>>>>>>>>>>>>>>>>>>>>>>>>>>> KEY <<<<<<<<<<<<<<<<<<<<<<<<<<<
>                                                          <
>     SKY/WX - SKY CONDITION/PRESENT WEATHER               <
>     TMP    - TEMPERATURE IN FAHRENHEIT                   <
>     DP     - DEWPOINT IN FAHRENHEIT                      <
>     RH     - RELATIVE HUMIDITY IN PERCENT                <
>     WIND   - DIRECTION AND SPEED IN MPH                  <
>     PRES   - MEAN SEA LEVEL PRESSURE IN INCHES OF HG     <
>     WCI    - WIND CHILL INDEX                            <
>     VSB    - VISIBILITY IN MILES                         <
>     HX     - HEAT INDEX                                  <
>     TC     - TEMPERATURE IN CELSIUS                      <
>     VRB    - VARIABLE WIND DIRECTION                     <
>                                                          <
>>>>>>>>>>>>>>>>>>>>>>>>>>>> KEY <<<<<<<<<<<<<<<<<<<<<<<<<<<





USA.gov is the U.S. government's official web portal to all federal, state and local government web resources and services.